Regional Weather Roundup
Issued by NWS Northern Indiana

Home | Current Version | Previous Version | Text Only | Print | Product List | Glossary On
Versions: 1 2 3 4 5 6 7 8 9 10 11 12 13 14 15 16 17 18 19 20 21 22 23 24 25 26 27 28 29 30 31 32 33 34 35 36 37 38 39 40 41 42 43 44 45 46 47 48 49 50
000
ASUS43 KIWX 280210
RWRIWX

KIWX WEATHER ROUNDUP
NATIONAL WEATHER SERVICE NORTHERN INDIANA
1000 PM EDT THU AUG 27 2015

NOTE: "FAIR" INDICATES FEW OR NO CLOUDS BELOW 12,000 FEET WITH NO
SIGNIFICANT WEATHER AND/OR OBSTRUCTIONS TO VISIBILITY.

* THESE STATIONS ARE NOT UNDER NWS QUALITY CONTROL. THEY ALSO MAY NOT
  REPORT WEATHER SUCH AS PRECIPITATION OR FOG.

INZ001>027-280300-
NORTHERN INDIANA

CITY           SKY/WX    TMP DP  RH WIND       PRES   REMARKS
GARY*          PTCLDY    61  55  82 E5        30.14R
VALPARAISO     PTCLDY    60  56  86 NE5       30.15R
MICHIGAN CITY* PTCLDY    57  57 100 CALM      30.16R
LAPORTE*       PTCLDY    60  59  97 NE3       30.16R
KNOX*          PTCLDY    61  55  82 NE3       30.14R
SOUTH BEND     CLEAR     59  54  83 CALM      30.16R
GOSHEN         CLEAR     60  55  83 E5        30.15S
MONTICELLO*    PTCLDY    65  60  82 CALM      30.12S
LOGANSPORT*    CLEAR     59  52  77 E5        30.14S
ROCHESTER*     CLEAR     63  59  88 E3        30.14S
WARSAW*        CLEAR     57  55  94 E3        30.15S
ANGOLA*        CLEAR     55  55 100 CALM      30.18S
FORT WAYNE     PTCLDY    60  56  86 E3        30.16F
HUNTINGTON*    CLEAR     61  53  74 CALM      30.15S
PERU/GRISSOM   CLEAR     65  57  77 E6        30.13S
MARION*        CLEAR     62  51  67 E6        30.15S

$$
INZ028>050-280300-
CENTRAL INDIANA

CITY           SKY/WX    TMP DP  RH WIND       PRES   REMARKS
LAFAYETTE      MOCLDY    65  58  78 NE5       30.11S
KOKOMO*        CLEAR     61  55  82 E6        30.14S
MUNCIE*        CLEAR     59  57  93 E7        30.15S
INDIANAPOLIS   MOCLDY    69  57  65 SE5       30.11R

$$
MIZ043>046-050>051-056>058-064>065-071>073-077>080-280300-
SOUTHWEST LOWER MICHIGAN

CITY           SKY/WX    TMP DP  RH WIND       PRES   REMARKS
BATTLE CREEK   CLEAR     61  54  77 SE3       30.17F
BENTON HARBOR  PTCLDY    57  55  93 CALM      30.15R
COLDWATER*     CLEAR     56  55  97 CALM      30.18R
HILLSDALE*     CLEAR     55  55 100 E3        30.19S FOG
HOLLAND        CLEAR     58  55  90 CALM      30.17R
GRAND RAPIDS   PTCLDY    61  56  83 S7        30.16S
KALAMAZOO      CLEAR     61  54  77 SE5       30.17S
STURGIS*       CLEAR     57  55  94 E7        30.17R
THREE RIVERS*  FAIR      58  56  92 CALM      30.17S

$$
OHZ001>008-015>018-024>025-280300-
NORTHWEST OHIO

CITY           SKY/WX    TMP DP  RH WIND       PRES   REMARKS
WAUSEON*       CLOUDY    59  57  94 NE3       30.18S
DEFIANCE       CLEAR     63  55  75 NE5       30.18R
FINDLAY        CLEAR     64  56  75 E8        30.18R
TOLEDO EXPRESS MOCLDY    59  56  89 CALM      30.19R
TOLEDO METCALF CLEAR     61  54  77 CALM      30.20R
LIMA           CLEAR     60  56  86 NE7       30.18R

$$
AND FOR LAKE MICHIGAN COASTAL AND OPEN LAKE BUOY OBSERVATIONS

STATION/POSITION TEMP    WIND        PRES    VSBY  WAVE
                 AIR SEA DIR/SP/G                  HT/PER
                 (F)     (DEG/KT/KT) (MB)    (MI)  (FT/S)
CALUMET HARBOR    67      70/  4/  5   N/A
MICHIGAN CITY     65      60/  6/  7   N/A
BURNS HARBOR      66      80/  6/  8 1020.7S
SAINT JOSEPH      62      CALM  /  2 1021.3R
SOUTH LAKE BUOY   66 69  140/  6/  6 1020.8R         0
4 MI NW BRIDGMAN  66 71  120/  6/  8   N/A           0
MICHIGAN CITY     67 71  110/  6/  8   N/A           1

$$
&&


USA.gov is the U.S. government's official web portal to all federal, state and local government web resources and services.